Flag for Australia Weather past 2 weeks in Melbourne, Victoria, Australia

Now
63 °F

Sunny.


Feels Like: 63 °F
Forecast: 48 / 59 °F
Wind: 9 mph from Southeast

Location: Melbourne Airport

Current Time: Sep 15, 2014 at 2:55:46 PM

Latest Report: Sep 15, 2014 at 2:00 PM


Visibility: 10 mi

Pressure: 29.86 "Hg

Humidity: 59%

Dew point: 48 °F

Location of MelbourneLocation

Historic Weather in Melbourne — Graph

°F

Melbourne temperature yesterday

Maximum temperature yesterday: 66 °F (at 2:30 PM)
Minimum temperature yesterday: 41 °F (at 12:30 AM)
Average temperature yesterday: 52 °F

Past Weeks' High & Low Weather Summary

 TemperatureHumidityPressure
High70 °F (Aug 31, 1:00 PM)100% (Sep 4, 12:00 AM)30.45 "Hg (Sep 4, 12:00 AM)
Low36 °F (Sep 4, 2:30 AM)32% (Sep 8, 8:00 PM)29.59 "Hg (Sep 9, 2:00 PM)
Average52 °F72%30.09 "Hg
* Reported Aug 31 1:00 PM — Sep 15 1:30 PM, Melbourne, Weather by CustomWeather, © 2014

Note: Actual official high and low records may vary slightly from our data, if they occured in-between our weather recording intervals... More about our weather records

Advertising

Melbourne weather history for August 31, 2014

 ConditionsComfort  
Time TempWeatherWind HumidityBarometerVisibility
1:00 PM
Aug 31
70 °FSunny.26 mph35%29.98 "Hg10 mi
1:30 PM68 °FSunny.25 mph38%29.98 "Hg10 mi
2:00 PM68 °FSunny.23 mph40%29.98 "Hg10 mi
2:30 PM66 °FSunny.23 mph43%29.98 "Hg10 mi
3:00 PM66 °FPartly sunny.20 mph43%29.95 "HgN/A
4:00 PM64 °FPartly sunny.12 mph49%29.95 "HgN/A
4:30 PM64 °FPartly sunny.12 mph52%29.95 "HgN/A
5:00 PM63 °FClear.17 mph52%29.95 "Hg10 mi
5:30 PM63 °FClear.10 mph52%29.95 "Hg10 mi
6:00 PM63 °FClear.14 mph52%29.92 "Hg10 mi
6:30 PM61 °FClear.15 mph55%29.92 "Hg10 mi
7:00 PM61 °FClear.14 mph55%29.92 "Hg10 mi
7:30 PM61 °FClear.13 mph55%29.92 "Hg10 mi
8:00 PM59 °FClear.9 mph63%29.92 "Hg10 mi
8:30 PM59 °FClear.8 mph59%29.92 "Hg10 mi
9:00 PM61 °FClear.17 mph55%29.89 "Hg10 mi
9:30 PM61 °FClear.16 mph55%29.89 "Hg10 mi
9:46 PM61 °FClear.18 mph52%29.89 "Hg10 mi
10:00 PM61 °FClear.22 mph52%29.89 "Hg10 mi
10:30 PM61 °FClear.29 mph48%29.83 "Hg10 mi
11:00 PM61 °FClear.30 mph48%29.83 "Hg10 mi
11:30 PM61 °FClear.31 mph48%29.83 "Hg10 mi
Weather by CustomWeather, © 2014

See weather overviewHow to use our weather pages